Location: ??????
(55.7522°N, 37.6156°E)
Time: 16:54:59
(UTC+00:00)

USA 59 Rocket - Pass Details

Date: 14 June 2025
Orbit: 372 x 1694 km, 63.3° (Epoch: 12 July)

Event Time Altitude Azimuth Distance (km) Brightness Sun altitude
Rises 21:13:02 0° 306° (NW) 2,343 3.7 -10.9°
Reaches altitude 10° 21:14:54 10° 301° (WNW) 1,555 2.6 -10.9°
Maximum altitude 21:18:12 53° 224° (SW) 636 -0.1 -10.9°
Enters shadow 21:22:09 12° 148° (SSE) 1,896 2.0 -10.9°
